This demonstration page uses our WeatherBlox Daily Observations layout. Learn more.

Left ArrowRight Arrow

Hourly Observations for February 4, 2015

Temp ( °F °C ) Dew Point ( °F °C ) Humidity (%) Winds ( mph kmh ) Pressure ( in mb ) Visibility ( mi km ) Precip ( " mm )
12:53 am 00:53 Clear 33 0.6 21 -6.1 61 61 SSW 7 11 30.16 1021 10 16.0934 N/A
1:53 am 01:53 Clear 32 undefined 21 -6.1 64 64 SW 7 11 30.16 1021 10 16.0934 N/A
2:53 am 02:53 Clear 33 0.6 22 -5.6 64 64 SSW 6 9 30.14 1021 10 16.0934 N/A
3:53 am 03:53 Clear 34 1.1 22 -5.6 61 61 VRB 5 7 30.12 1020 10 16.0934 N/A
4:53 am 04:53 Clear 34 1.1 22 -5.6 61 61 SW 5 7 30.11 1020 10 16.0934 N/A
5:53 am 05:53 Clear 33 0.6 22 -5.6 64 64 VRB 3 6 30.09 1019 10 16.0934 N/A
6:53 am 06:53 Clear 33 0.6 22 -5.6 64 64 SSW 5 7 30.11 1020 10 16.0934 N/A
7:53 am 07:53 Sunny 34 1.1 22 -5.6 61 61 SSW 7 11 30.12 1020 10 16.0934 N/A
8:53 am 08:53 Sunny 36 2.2 23 -5 59 59 SW 7 11 30.12 1020 10 16.0934 N/A
9:53 am 09:53 Sunny 39 3.9 23 -5 53 53 SW 10 17 30.1 1019 10 16.0934 N/A
10:53 am 10:53 Sunny 42 5.6 24 -4.4 49 49 WSW 10 17 30.1 1019 10 16.0934 N/A
11:53 am 11:53 Sunny 44 6.7 26 -3.3 49 49 WSW 9 15 30.1 1019 10 16.0934 N/A
12:53 pm 12:53 Sunny 44 6.7 26 -3.3 49 49 WSW 9 15 30.06 1018 10 16.0934 N/A
1:53 pm 13:53 Sunny 46 7.8 27 -2.8 47 47 WSW 8 13 30.03 1017 10 16.0934 N/A
2:53 pm 14:53 Cloudy 46 7.8 27 -2.8 47 47 VRB 7 11 30.04 1017 10 16.0934 N/A
3:53 pm 15:53 Cloudy 45 7.2 28 -2.2 52 52 WNW 8 13 30.04 1017 10 16.0934 N/A
4:53 pm 16:53 Cloudy 44 6.7 28 -2.2 53 53 W 9 15 30.03 1017 10 16.0934 N/A
5:53 pm 17:53 Cloudy 43 6.1 29 -1.7 58 58 WNW 6 9 30.04 1017 10 16.0934 N/A
6:53 pm 18:53 Cloudy 37 2.8 31 -0.6 79 79 NW 14 22 30.09 1019 10 16.0934 N/A
7:02 pm 19:02 Cloudy 37 2.8 31 -0.6 79 79 NNW 13 20 30.09 1019 9 14.48406 N/A
7:44 pm 19:44 Cloudy with Light Snow 34 1.1 32 undefined 92 92 NW 12 19 30.12 1020 2.5 4.02335 0.01 0.254
7:53 pm 19:53 Cloudy with Light Snow 33 0.6 31 -0.6 92 92 NW 13 20 30.12 1020 2 3.21868 0.01 0.254
8:01 pm 20:01 Cloudy with Light Snow 33 0.6 31 -0.6 92 92 NW 12 19 30.15 1021 1.75 2.816345 N/A
8:17 pm 20:17 Cloudy with Light Snow 33 0.6 31 -0.6 92 92 NW 12 19 30.15 1021 1.75 2.816345 0.01 0.254
8:27 pm 20:27 Cloudy with Light Snow 32 undefined 30 -1.1 92 92 NW 13 20 30.15 1021 1.75 2.816345 0.01 0.254
8:34 pm 20:34 Cloudy with Light Snow 32 undefined 30 -1.1 92 92 NW 14 22 30.15 1021 1.5 2.41401 0.01 0.254
8:45 pm 20:45 Cloudy with Light Snow 32 undefined 30 -1.1 92 92 WNW 12 19 30.18 1022 1 1.60934 0.01 0.254
8:53 pm 20:53 Cloudy with Light Snow 31 -0.6 29 -1.7 92 92 NW 14 22 30.16 1021 1 1.60934 0.02 0.508
9:07 pm 21:07 Windy with Snow Likely 30 -1.1 28 -2.2 92 92 NNW 21 33 30.18 1022 1 1.60934 0.01 0.254
9:21 pm 21:21 Mostly Cloudy with Light Snow 28 -2.2 26 -3.3 92 92 NNW 17 28 30.18 1022 0.75 1.207005 0.01 0.254
9:27 pm 21:27 Cloudy with Light Snow 28 -2.2 26 -3.3 92 92 NW 12 19 30.18 1022 1 1.60934 0.01 0.254
9:53 pm 21:53 Cloudy with Light Snow 28 -2.2 25 -3.9 88 88 NNW 10 17 30.19 1022 1.25 2.011675 0.02 0.508
10:18 pm 22:18 Cloudy with Light Snow 27 -2.8 24 -4.4 89 89 NW 16 26 30.21 1023 2 3.21868 N/A
10:32 pm 22:32 Cloudy with Light Snow 27 -2.8 24 -4.4 89 89 NNW 13 20 30.21 1023 1.75 2.816345 N/A
10:43 pm 22:43 Cloudy with Light Snow 27 -2.8 23 -5 85 85 NW 13 20 30.21 1023 2 3.21868 N/A
10:53 pm 22:53 Cloudy with Light Snow 27 -2.8 23 -5 85 85 NNW 14 22 30.21 1023 2 3.21868 N/A
11:18 pm 23:18 Cloudy with Light Snow 26 -3.3 20 -6.7 78 78 NNW 14 22 30.24 1024 6 9.65604 N/A
11:46 pm 23:46 Cloudy 25 -3.9 18 -7.8 75 75 NNW 14 22 30.24 1024 10 16.0934 N/A
11:53 pm 23:53 Cloudy 25 -3.9 18 -7.8 75 75 NNW 15 24 30.24 1024 10 16.0934 N/A

Powered by AerisWeather